Stations météo

Publicité
Cazaux, France (7502): Température de l'air & dewpoint: 20.05.2019 17:00:00 - 26.05.2019 17:00:00 (CEST)Cazaux, France (7502): Température de l'air 5cm: 20.05.2019 17:00:00 - 26.05.2019 17:00:00 (CEST)Cazaux, France (7502): Température de l'air -20cm & Température de l'air -100cm: 20.05.2019 17:00:00 - 26.05.2019 17:00:00 (CEST)Cazaux, France (7502): Vitesse du vent & gusts: 20.05.2019 17:00:00 - 26.05.2019 17:00:00 (CEST)Cazaux, France (7502): Direction du vent: 20.05.2019 17:00:00 - 26.05.2019 17:00:00 (CEST)Cazaux, France (7502): reduced air pressure: 20.05.2019 17:00:00 - 26.05.2019 17:00:00 (CEST)Cazaux, France (7502): visibility: 20.05.2019 17:00:00 - 26.05.2019 17:00:00 (CEST)Cazaux, France (7502): Quantités de précipitations: 20.05.2019 17:00:00 - 26.05.2019 17:00:00 (CEST)
Date & Time tt [°C] td [°C] tt 5cm [°C] tt -20cm [°C] tt -100cm [°C] ff [km/h] ff [knt] fx [km/h] fx [knt] dd ppp [hPa] vv [km] rr [mm]
26.05.2019 17:00:00 17,7 13,0 20,6 18,1 17,8 20 11 32 17 WNW 1021,0 60 0,0
26.05.2019 16:00:00 18,8 13,0 22,7 18,0 17,7 18 10 29 16 WNW 1021,2 60 0,0
26.05.2019 15:00:00 19,1 11,9 23,8 18,0 17,7 16 9 28 15 W 1021,4 60 0,0
26.05.2019 14:00:00 19,2 11,5 23,5 18,1 17,7 16 8 26 14 W 1021,6 60 0,0
26.05.2019 13:00:00 18,7 12,7 20,1 18,1 17,7 11 6 21 11 WNW 1021,9 60 0,0
26.05.2019 12:00:00 17,2 12,3 19,0 18,1 17,7 14 8 24 13 WNW 1022,3 55 0,0
26.05.2019 11:00:00 18,5 12,3 18,9 18,2 17,7 9 5 21 11 NW 1022,2 58 0,0
26.05.2019 10:00:00 17,2 12,5 16,2 18,2 17,7 10 6 17 9 WNW 1022,4 46 0,0
26.05.2019 09:00:00 16,8 12,7 18,0 18,3 17,7 8 4 13 7 W 1022,2 53 0,0
26.05.2019 08:00:00 14,3 13,3 8,8 18,4 17,7 3 2 6 4 WNW 1022,1 38 0,0
26.05.2019 07:00:00 12,6 11,8 6,6 18,4 17,7 4 2 5 3 W 1022,0 4,1 0,0
26.05.2019 06:00:00 13,2 11,9 8,9 18,5 17,7 3 1 8 4 WSW 1022,1 26 0,0
26.05.2019 05:00:00 13,5 12,4 9,1 18,5 17,7 4 2 9 5 NW 1022,3 30 0,0
26.05.2019 04:00:00 13,5 11,7 12,2 18,6 17,7 4 2 9 5 W 1022,5 37 0,0
26.05.2019 03:00:00 14,1 12,0 11,8 18,6 17,7 7 4 11 6 W 1022,7 38 0,0
26.05.2019 02:00:00 14,2 11,5 12,0 18,6 17,7 3 1 11 6 NNW 1023,1 44 0,0
26.05.2019 01:00:00 14,1 11,1 12,5 18,6 17,7 8 5 17 9 NW 1023,5 50 0,0
26.05.2019 00:00:00 14,5 11,1 10,6 18,6 17,7 10 6 16 9 WNW 1023,7 47 0,0
25.05.2019 23:00:00 13,4 10,6 11,1 18,5 17,7 5 3 20 11 WNW 1023,7 48 0,0
25.05.2019 22:00:00 15,0 11,0 14,4 18,5 17,7 12 7 22 12 NW 1023,2 57 0,0
25.05.2019 21:00:00 15,2 10,4 14,8 18,3 17,6 16 8 31 17 NW 1022,9 60 0,0
25.05.2019 20:00:00 15,9 10,6 16,5 18,3 17,7 17 9 33 18 NW 1022,6 60 0,0
25.05.2019 19:00:00 17,6 10,2 18,1 18,2 17,7 18 10 35 19 WNW 1022,6 60 0,0
25.05.2019 18:00:00 17,0 9,7 19,3 18,1 17,7 23 12 36 20 NW 1022,7 60 0,0
25.05.2019 17:00:00 18,3 10,4 20,3 18,0 17,7 20 11 43 23 NW 1022,6 60 0,0
25.05.2019 16:00:00 17,8 11,4 20,1 18,0 17,6 24 13 44 24 NW 1022,7 41 0,0
25.05.2019 15:00:00 18,2 12,0 20,9 17,9 17,6 22 12 44 24 NW 1022,7 35 0,0
25.05.2019 14:00:00 19,4 11,4 22,9 17,9 17,6 24 13 44 24 NNW 1022,4 42 0,0
25.05.2019 13:00:00 19,1 10,9 22,7 17,9 17,6 22 12 44 24 NNW 1022,6 59 0,0
25.05.2019 12:00:00 19,0 10,5 20,7 18,0 17,6 22 12 42 23 NNW 1022,2 45 0,0
25.05.2019 11:00:00 17,3 11,3 17,6 18,0 17,6 20 11 34 18 N 1022,4 46 0,0
25.05.2019 10:00:00 16,0 11,2 15,9 18,1 17,6 14 8 22 12 NNW 1022,2 40 0,0
25.05.2019 09:00:00 15,8 10,8 16,8 18,1 17,6 12 6 20 11 NNW 1021,8 55 0,0
25.05.2019 08:00:00 15,2 12,1 13,5 18,2 17,6 8 4 13 7 NNW 1021,2 49 0,0
25.05.2019 07:00:00 13,9 12,9 12,9 18,2 17,6 7 4 13 7 NW 1020,6 19 0,0
25.05.2019 06:00:00 14,3 13,3 13,0 18,3 17,6 8 4 22 12 NW 1020,1 11 0,0
25.05.2019 05:00:00 15,1 14,0 14,1 18,3 17,5 12 6 26 14 NW 1020,0 16 0,0
25.05.2019 04:00:00 15,1 13,8 14,1 18,4 17,6 16 9 29 16 WNW 1019,9 20 0,0
25.05.2019 03:00:00 15,0 13,5 13,7 18,4 17,6 15 8 27 14 NW 1019,8 22 0,0
25.05.2019 02:00:00 14,8 13,3 13,5 18,4 17,6 15 8 24 13 NW 1020,1 24 0,0
25.05.2019 01:00:00 14,7 12,9 13,2 18,4 17,6 13 7 22 12 NW 1020,5 29 0,0
25.05.2019 00:00:00 14,4 12,4 13,3 18,4 17,6 13 7 31 17 NNW 1020,6 35 0,0
24.05.2019 23:00:00 14,7 12,0 13,4 18,4 17,6 16 8 28 15 NW 1020,3 39 0,0
24.05.2019 22:00:00 14,7 12,0 13,6 18,3 17,6 14 7 32 17 NNW 1019,6 40 0,0
24.05.2019 21:00:00 15,8 12,4 15,6 18,2 17,5 19 11 35 19 NW 1019,1 43 0,0
24.05.2019 20:00:00 17,4 12,1 18,8 18,1 17,6 21 11 37 20 NW 1018,7 32 0,0
24.05.2019 19:00:00 17,5 13,6 19,2 18,0 17,5 21 11 36 20 NW 1018,4 24 0,0
24.05.2019 18:00:00 17,3 13,4 19,4 17,9 17,5 22 12 36 20 NNW 1018,8 20 0,0
24.05.2019 17:00:00 18,3 13,2 21,5 17,8 17,5 25 13 36 19 NW 1018,7 20 0,0
24.05.2019 16:00:00 20,0 11,2 26,4 17,8 17,5 18 10 31 17 W 1018,5 46 0,0
24.05.2019 15:00:00 19,8 11,8 23,9 17,7 17,5 18 10 29 16 WNW 1018,7 54 0,0
24.05.2019 14:00:00 18,8 13,2 22,4 17,7 17,5 18 10 31 17 WNW 1019,0 29 0,0
24.05.2019 13:00:00 18,4 13,5 20,5 17,7 17,5 19 11 30 16 NW 1019,1 29 0,0
24.05.2019 12:00:00 18,4 13,5 20,2 17,8 17,5 14 7 22 12 WNW 1018,9 47 0,0
24.05.2019 11:00:00 17,0 12,9 18,5 17,8 17,5 11 6 17 9 WNW 1018,9 30 0,0
24.05.2019 10:00:00 16,5 13,0 17,1 17,8 17,5 11 6 24 13 WNW 1019,0 29 0,0
24.05.2019 09:00:00 15,9 13,7 15,3 17,9 17,5 10 5 14 8 NW 1018,8 23 0,0
24.05.2019 08:00:00 15,0 13,7 14,1 17,9 17,5 5 3 9 5 NW 1018,5 18 0,0
24.05.2019 07:00:00 14,6 13,5 13,7 18,0 17,5 5 3 9 5 W 1018,1 18 0,0
24.05.2019 06:00:00 14,4 13,3 13,1 18,0 17,5 7 4 13 7 W 1017,8 17 0,0
24.05.2019 05:00:00 14,8 13,7 14,2 18,1 17,5 8 4 14 8 WNW 1017,8 15 0,0
24.05.2019 04:00:00 15,0 13,9 14,3 18,1 17,5 9 5 19 10 W 1018,1 16 0,0
24.05.2019 03:00:00 15,1 14,1 14,4 18,1 17,5 11 6 19 10 W 1018,3 14 0,0
24.05.2019 02:00:00 15,2 14,2 14,5 18,1 17,5 10 5 20 11 W 1018,7 14 0,0
24.05.2019 01:00:00 15,4 14,4 14,6 18,1 17,5 11 6 21 12 W 1018,9 14 0,0
24.05.2019 00:00:00 15,2 14,2 14,3 18,1 17,5 9 5 21 11 W 1018,7 13 0,0
23.05.2019 23:00:00 15,4 14,4 14,5 18,1 17,5 12 7 20 11 WSW 1018,8 14 0,0
23.05.2019 22:00:00 15,9 14,9 15,1 18,0 17,5 9 5 16 9 WSW 1018,4 12 0,0
23.05.2019 21:00:00 16,5 15,2 15,9 17,9 17,4 9 5 18 10 W 1018,0 11 0,4
23.05.2019 20:00:00 17,5 14,9 17,5 17,9 17,4 14 8 21 11 WSW 1017,9 24 0,0
23.05.2019 19:00:00 19,2 13,6 20,8 17,8 17,4 6 3 20 11 NW 1017,2 37 0,0
23.05.2019 18:00:00 19,3 14,5 22,3 17,7 17,5 13 7 27 15 W 1017,3 45 0,0
23.05.2019 17:00:00 19,9 15,3 22,6 17,7 17,4 19 10 29 16 SW 1017,0 43 0,0
23.05.2019 16:00:00 18,6 15,1 20,1 17,6 17,4 18 10 24 13 SW 1017,1 47 0,0
23.05.2019 15:00:00 18,9 14,2 19,6 17,5 17,4 7 4 18 10 SSW 1017,1 42 0,0
23.05.2019 14:00:00 20,2 13,2 21,3 17,5 17,4 13 7 22 12 WNW 1017,3 47 0,0
23.05.2019 13:00:00 23,0 13,2 27,6 17,5 17,4 16 9 21 12 SW 1017,4 40 0,0
23.05.2019 12:00:00 23,6 13,2 25,5 17,5 17,4 9 5 15 8 SW 1017,5 60 0,0
23.05.2019 11:00:00 21,0 13,4 24,0 17,6 17,4 8 4 14 8 WSW 1017,5 44 0,0
23.05.2019 10:00:00 21,2 12,6 23,1 17,7 17,4 5 3 9 5 SSE 1017,4 53 0,0
23.05.2019 09:00:00 17,5 12,0 18,6 17,8 17,4 2 1 10 5 SE 1017,5 46 0,0
23.05.2019 08:00:00 14,3 11,6 6,2 17,9 17,4 2 1 3 2 ENE 1017,2 30 0,0
23.05.2019 07:00:00 9,9 8,7 5,4 18,0 17,4 0 0 6 4 N 1017,0 25 0,0
23.05.2019 06:00:00 9,9 8,7 6,8 18,1 17,4 3 1 5 3 NW 1016,9 25 0,0
23.05.2019 05:00:00 10,6 9,2 6,6 18,1 17,4 2 1 5 3 WNW 1016,9 29 0,0
23.05.2019 04:00:00 11,5 9,9 6,2 18,1 17,4 0 0 6 3 N 1017,1 35 0,0
23.05.2019 03:00:00 12,7 10,6 8,0 18,2 17,4 5 3 7 4 N 1017,3 31 0,0
23.05.2019 02:00:00 13,4 11,1 8,1 18,2 17,4 3 2 7 4 N 1017,7 35 0,0
23.05.2019 01:00:00 13,5 11,2 9,4 18,2 17,4 4 2 9 5 NW 1017,8 37 0,0
23.05.2019 00:00:00 14,8 11,9 10,4 18,1 17,4 6 3 11 6 N 1017,9 45 0,0
22.05.2019 23:00:00 16,1 12,5 13,4 18,1 17,4 10 6 13 7 N 1018,1 48 0,0
22.05.2019 22:00:00 17,2 12,1 14,7 17,9 17,4 9 5 15 8 NNW 1017,8 50 0,0
22.05.2019 21:00:00 20,1 11,6 19,8 17,8 17,3 11 6 21 12 N 1017,4 60 0,0
22.05.2019 20:00:00 21,8 11,5 23,7 17,7 17,4 15 8 25 13 NNW 1017,5 55 0,0
22.05.2019 19:00:00 22,9 11,6 27,2 17,5 17,4 14 8 26 14 NNW 1017,6 59 0,0
22.05.2019 18:00:00 22,9 11,3 27,7 17,4 17,3 16 9 31 17 NNW 1017,9 60 0,0
22.05.2019 17:00:00 23,0 12,0 26,9 17,2 17,3 18 10 29 16 N 1018,3 55 0,0
22.05.2019 16:00:00 22,3 12,5 27,1 17,1 17,3 17 9 29 16 NW 1018,9 46 0,0
22.05.2019 15:00:00 21,9 12,4 24,8 17,0 17,3 14 7 23 12 WNW 1019,1 48 0,0
22.05.2019 14:00:00 22,1 13,2 22,4 17,0 17,3 9 5 24 13 WNW 1019,4 32 0,0
22.05.2019 13:00:00 20,4 13,1 22,3 17,0 17,3 10 5 18 10 NW 1019,8 35 0,0
22.05.2019 12:00:00 20,6 12,3 27,0 17,0 17,3 9 5 15 8 SSW 1020,1 0,1 0,0
22.05.2019 11:00:00 19,2 12,9 24,7 17,0 17,3 7 4 13 7 WSW 1020,0 20 0,0
22.05.2019 10:00:00 16,8 13,3 22,3 17,2 17,3 6 4 11 6 SSW 1020,4 15 0,0
22.05.2019 09:00:00 15,8 13,6 13,8 17,2 17,3 0 0 6 3 N 1020,2 10 0,0
22.05.2019 08:00:00 10,4 9,8 4,6 17,4 17,4 0 0 2 1 N 1020,0 19 0,0
22.05.2019 07:00:00 6,4 5,7 3,5 17,4 17,3 0 0 5 3 N 1019,9 3,9 0,0
22.05.2019 06:00:00 7,6 6,8 3,1 17,5 17,3 2 1 5 3 N 1019,8 18 0,0
22.05.2019 05:00:00 9,0 8,4 3,3 17,6 17,3 2 1 4 2 WNW 1019,8 18 0,0
22.05.2019 04:00:00 10,1 9,3 4,3 17,7 17,3 3 2 9 5 N 1019,9 13 0,0
22.05.2019 03:00:00 10,3 9,4 7,5 17,7 17,3 8 4 10 6 N 1019,8 16 0,0
22.05.2019 02:00:00 10,3 9,5 7,1 17,8 17,3 6 4 10 5 N 1020,0 19 0,0
22.05.2019 01:00:00 11,5 10,4 7,4 17,7 17,3 5 3 12 6 N 1020,0 25 0,0
22.05.2019 00:00:00 11,8 10,5 9,2 17,7 17,3 8 4 14 7 NNW 1020,2 35 0,0
21.05.2019 23:00:00 12,4 10,6 9,0 17,7 17,3 8 4 11 6 NNW 1020,3 46 0,0
21.05.2019 22:00:00 13,5 10,8 10,9 17,5 17,3 6 3 16 8 NNW 1019,6 54 0,0
21.05.2019 21:00:00 15,7 11,7 15,8 17,4 17,3 14 7 31 17 NNW 1019,4 51 0,0
21.05.2019 20:00:00 16,6 12,1 18,2 17,3 17,3 18 10 32 17 NNW 1019,1 58 0,0
21.05.2019 19:00:00 17,2 11,2 21,7 17,1 17,3 21 11 33 18 NNW 1019,0 54 0,0
21.05.2019 18:00:00 17,6 11,4 22,8 17,0 17,3 22 12 32 17 NW 1019,0 47 0,0
21.05.2019 17:00:00 18,3 11,1 24,4 16,9 17,3 21 11 29 16 NNW 1019,0 45 0,0
21.05.2019 16:00:00 18,8 10,9 21,4 16,8 17,3 16 9 27 15 NW 1019,0 42 0,0
21.05.2019 15:00:00 18,3 11,1 20,4 16,7 17,2 12 6 20 11 NW 1019,0 39 0,0
21.05.2019 14:00:00 18,0 10,4 20,9 16,7 17,3 9 5 22 12 WNW 1019,3 49 0,0
21.05.2019 13:00:00 18,1 10,5 20,1 16,6 17,2 7 4 21 12 W 1019,4 49 0,0
21.05.2019 12:00:00 16,6 10,4 18,0 16,7 17,3 12 6 21 12 NNW 1019,5 49 0,0
21.05.2019 11:00:00 15,7 10,2 17,7 16,8 17,2 13 7 21 11 WNW 1019,2 50 0,0
21.05.2019 10:00:00 16,3 10,6 15,9 16,9 17,2 9 5 16 9 WNW 1018,9 33 0,0
21.05.2019 09:00:00 14,3 11,8 15,0 17,0 17,3 3 2 9 5 W 1018,7 31 0,0
21.05.2019 08:00:00 11,3 10,5 4,9 17,1 17,3 0 0 3 1 N 1018,3 19 0,0
21.05.2019 07:00:00 7,4 6,3 3,0 17,1 17,2 0 0 3 2 N 1018,1 7 0,0
21.05.2019 06:00:00 9,4 8,5 6,2 17,2 17,3 0 0 3 2 N 1017,6 32 0,0
21.05.2019 05:00:00 8,6 7,7 7,1 17,3 17,3 0 0 6 3 N 1017,4 16 0,0
21.05.2019 04:00:00 7,6 6,7 3,1 17,4 17,3 0 0 3 1 N 1017,4 26 0,0
21.05.2019 03:00:00 8,6 7,7 2,7 17,4 17,3 2 1 4 2 NW 1017,1 20 0,0
21.05.2019 02:00:00 9,3 8,2 3,3 17,5 17,3 2 1 5 3 WNW 1017,2 24 0,0
21.05.2019 01:00:00 10,1 8,5 4,1 17,5 17,3 3 2 9 5 WNW 1017,4 32 0,0
21.05.2019 00:00:00 11,3 9,0 8,6 17,4 17,3 6 3 10 5 NW 1017,6 35 0,0
20.05.2019 23:00:00 12,9 9,9 10,3 17,4 17,3 6 3 13 7 NNW 1017,5 35 0,0
20.05.2019 22:00:00 12,6 10,0 10,8 17,3 17,3 6 3 15 8 NNW 1016,7 31 0,0
20.05.2019 21:00:00 13,9 10,3 13,2 17,2 17,3 10 5 23 12 NW 1016,4 34 0,0
20.05.2019 20:00:00 15,7 10,5 17,7 17,0 17,3 13 7 26 14 NW 1016,0 60 0,0
20.05.2019 19:00:00 16,3 10,4 20,3 16,9 17,3 17 9 29 16 WNW 1015,9 38 0,0
20.05.2019 18:00:00 17,2 10,3 22,4 16,6 17,3 19 10 31 17 NW 1015,4 41 0,0
20.05.2019 17:00:00 17,5 10,1 23,0 16,5 17,3 18 10 31 17 WNW 1015,3 42 0,0

tt = Température de l'air
td = dewpoint
tt 5cm = Température de l'air 5cm
tt -20cm = Température de l'air -20cm
tt -100cm = Température de l'air -100cm
ff = Vitesse du vent
fx = gusts
dd = Direction du vent
ppp = reduced air pressure
vv = visibility
rr = Quantités de précipitations

stations d'obs. à proximité